Location: Bergnershof
(48.9468°N, 10.9431°E)
Time: 04:46:54
(UTC+00:00)

COSMO-SKYMED 1 - Pass Details

Date: 03 March 2021
Orbit: 621 x 623 km, 97.9° (Epoch: 11 April)

Event Time Altitude Azimuth Distance (km) Brightness Sun altitude
Rises 17:43:37 0° 11° (N) 2,917 5.9 -7.5°
Reaches altitude 10° 17:45:49 10° 9° (N) 2,005 5.1 -7.8°
Maximum altitude 17:50:10 70° 287° (WNW) 668 3.0 -8.5°
Drops below altitude 10° 17:54:28 10° 204° (SSW) 1,988 5.5 -9.3°
Sets 17:56:39 0° 202° (SSW) 2,890 6.3 -9.6°
